Location: Poughquag
(41.6090°N, 73.6820°W)
Time: 04:32:27
(UTC-04:00)

ISS - Pass Details

Date: 01 July 2022
Orbit: 412 x 420 km, 51.6° (Epoch: 11 August)

Event Time Altitude Azimuth Distance (km) Brightness Sun altitude
Exits shadow 02:11:46 20° 90° (E) 1,060 -1.6 -23.1°
Drops below altitude 10° 02:13:12 10° 73° (ENE) 1,534 -0.5 -23.0°
Enters shadow 03:10:06 -68° 237° (WSW) 12,272 3.6 -18.5°
Maximum altitude 03:47:06 38° 333° (NNW) 681 -2.5 -14.5°
